Location: Kawakawa
(35.3830°S, 174.0670°E)
Time: 16:54:02
(UTC+12:00)

ISS - Pass Details

Date: 10 July 2022
Orbit: 412 x 420 km, 51.6° (Epoch: 15 August)

Event Time Altitude Azimuth Distance (km) Brightness Sun altitude
Rises 18:03:46 0° 234° (SW) 2,381 0.6 -7.8°
Reaches altitude 10° 18:05:56 10° 240° (WSW) 1,509 -0.4 -8.2°
Maximum altitude 18:09:11 46° 314° (NW) 574 -2.5 -8.8°
Drops below altitude 10° 18:12:24 10° 28° (NNE) 1,487 -1.0 -9.4°
Sets 18:14:31 0° 34° (NE) 2,341 -0.1 -9.8°
